JBU354 TIST-TJSJ

Flight info

Callsign JBU354
Flight time 0h 19m
Altitude 12000
Route STT RTE2 SJU
Aircraft A320/M-SDE3FGHIRWY/LB1

Departure

Time 2026-04-26 02:28
Airport Cyril E. King Airport (TIST)

Arrival

Time 2026-04-26 02:47
Airport Luis Munoz Marin International Airport (TJSJ)
Time Latitude Longitude Altitude Speed Heading
2026-04-26 02:06 18.33516 -64.97332 27 ft 0 kts 84°
2026-04-26 02:21 18.33514 -64.97347 27 ft 4 kts 79°
2026-04-26 02:21 18.33507 -64.97374 27 ft 4 kts 60°
2026-04-26 02:22 18.33491 -64.97392 27 ft 4 kts 10°
2026-04-26 02:22 18.33480 -64.97393 27 ft 1 kts 356°
2026-04-26 02:22 18.33479 -64.97393 27 ft 0 kts 356°
2026-04-26 02:24 18.33490 -64.97393 27 ft 4 kts 359°
2026-04-26 02:24 18.33523 -64.97394 27 ft 6 kts 354°
2026-04-26 02:25 18.33572 -64.97398 27 ft 8 kts 354°
2026-04-26 02:25 18.33617 -64.97428 27 ft 9 kts 277°
2026-04-26 02:25 18.33613 -64.97502 27 ft 11 kts 267°
2026-04-26 02:25 18.33610 -64.97593 27 ft 14 kts 266°
2026-04-26 02:26 18.33604 -64.97704 27 ft 16 kts 267°
2026-04-26 02:26 18.33603 -64.97834 28 ft 19 kts 277°
2026-04-26 02:26 18.33593 -64.97979 27 ft 21 kts 265°
2026-04-26 02:26 18.33586 -64.98143 27 ft 20 kts 268°
2026-04-26 02:27 18.33584 -64.98288 27 ft 17 kts 279°
2026-04-26 02:27 18.33675 -64.98316 27 ft 13 kts 36°
2026-04-26 02:27 18.33692 -64.98199 27 ft 27 kts 86°
2026-04-26 02:27 18.33712 -64.97745 28 ft 96 kts 87°
2026-04-26 02:28 18.33748 -64.96850 25 ft 147 kts 88°
2026-04-26 02:28 18.33803 -64.95739 468 ft 153 kts 89°
2026-04-26 02:28 18.33711 -64.94583 853 ft 170 kts 120°
2026-04-26 02:28 18.32731 -64.93807 1256 ft 192 kts 162°
2026-04-26 02:29 18.31410 -64.93378 1769 ft 209 kts 171°
2026-04-26 02:29 18.29934 -64.93706 2190 ft 234 kts 213°
2026-04-26 02:29 18.28878 -64.95075 2799 ft 251 kts 239°
2026-04-26 02:29 18.27988 -64.96687 3620 ft 259 kts 238°
2026-04-26 02:30 18.27040 -64.98300 4504 ft 265 kts 237°
2026-04-26 02:30 18.26120 -64.99992 5415 ft 269 kts 250°
2026-04-26 02:30 18.25909 -65.01947 6272 ft 275 kts 276°
2026-04-26 02:30 18.26192 -65.03945 7152 ft 277 kts 278°
2026-04-26 02:31 18.26502 -65.05955 8039 ft 279 kts 279°
2026-04-26 02:31 18.26817 -65.07979 8902 ft 282 kts 279°
2026-04-26 02:31 18.27133 -65.10030 9739 ft 286 kts 279°
2026-04-26 02:31 18.27452 -65.12128 10283 ft 300 kts 279°
2026-04-26 02:32 18.27786 -65.14347 10488 ft 323 kts 279°
2026-04-26 02:32 18.28150 -65.16763 10641 ft 346 kts 279°
2026-04-26 02:32 18.28534 -65.19315 11043 ft 358 kts 278°
2026-04-26 02:32 18.28925 -65.21916 11643 ft 362 kts 278°
2026-04-26 02:33 18.29334 -65.24536 11918 ft 364 kts 279°
2026-04-26 02:33 18.29825 -65.27169 11986 ft 375 kts 281°
2026-04-26 02:33 18.30396 -65.29922 12010 ft 393 kts 282°
2026-04-26 02:33 18.31014 -65.32756 12002 ft 399 kts 282°
2026-04-26 02:34 18.31630 -65.35569 11995 ft 400 kts 282°
2026-04-26 02:34 18.32246 -65.38427 11995 ft 401 kts 282°
2026-04-26 02:34 18.32850 -65.41289 11999 ft 401 kts 282°
2026-04-26 02:34 18.33443 -65.44153 12001 ft 400 kts 281°
2026-04-26 02:35 18.34028 -65.47018 12004 ft 400 kts 281°
2026-04-26 02:35 18.34615 -65.49882 12005 ft 400 kts 281°
2026-04-26 02:35 18.35201 -65.52745 12002 ft 400 kts 281°
2026-04-26 02:35 18.35789 -65.55612 12002 ft 401 kts 281°
2026-04-26 02:36 18.36369 -65.58441 12005 ft 401 kts 281°
2026-04-26 02:36 18.36955 -65.61298 11996 ft 395 kts 281°
2026-04-26 02:36 18.37519 -65.64037 11888 ft 373 kts 281°
2026-04-26 02:36 18.38061 -65.66674 11426 ft 364 kts 282°
2026-04-26 02:37 18.38587 -65.69253 10955 ft 357 kts 282°
2026-04-26 02:37 18.39098 -65.71769 10488 ft 343 kts 282°
2026-04-26 02:37 18.39582 -65.74155 10021 ft 325 kts 282°
2026-04-26 02:37 18.40026 -65.76431 9534 ft 310 kts 278°
2026-04-26 02:38 18.40219 -65.78616 9035 ft 299 kts 275°
2026-04-26 02:38 18.40381 -65.80761 8536 ft 289 kts 275°
2026-04-26 02:38 18.40540 -65.82842 8048 ft 282 kts 275°
2026-04-26 02:38 18.40696 -65.84880 7569 ft 277 kts 274°
2026-04-26 02:39 18.40851 -65.86898 7094 ft 276 kts 274°
2026-04-26 02:39 18.41007 -65.88909 6626 ft 275 kts 273°
2026-04-26 02:39 18.40857 -65.90898 6157 ft 272 kts 257°
2026-04-26 02:39 18.40414 -65.92835 5998 ft 274 kts 255°
2026-04-26 02:40 18.39934 -65.94779 5835 ft 274 kts 255°
2026-04-26 02:40 18.39453 -65.96689 5569 ft 272 kts 255°
2026-04-26 02:40 18.38972 -65.98608 5302 ft 271 kts 255°
2026-04-26 02:40 18.38494 -66.00518 5037 ft 270 kts 255°
2026-04-26 02:41 18.38020 -66.02423 4772 ft 268 kts 255°
2026-04-26 02:41 18.37613 -66.04340 4493 ft 268 kts 260°
2026-04-26 02:41 18.37317 -66.06278 4226 ft 267 kts 261°
2026-04-26 02:41 18.37033 -66.08215 3894 ft 268 kts 261°
2026-04-26 02:42 18.36745 -66.10149 3547 ft 268 kts 261°
2026-04-26 02:42 18.36634 -66.12069 3220 ft 267 kts 274°
2026-04-26 02:42 18.36810 -66.14006 3016 ft 261 kts 277°
2026-04-26 02:42 18.37160 -66.15830 3002 ft 244 kts 295°
2026-04-26 02:43 18.39571 -66.17664 2897 ft 214 kts 354°
2026-04-26 02:43 18.41011 -66.17508 2783 ft 202 kts 19°
2026-04-26 02:43 18.42186 -66.16809 2674 ft 190 kts 41°
2026-04-26 02:44 18.42982 -66.15757 2539 ft 181 kts 62°
2026-04-26 02:44 18.43353 -66.14523 2362 ft 175 kts 82°
2026-04-26 02:44 18.43376 -66.13274 2162 ft 166 kts 89°
2026-04-26 02:44 18.43375 -66.12083 1972 ft 157 kts 89°
2026-04-26 02:45 18.43374 -66.10969 1767 ft 149 kts 89°
2026-04-26 02:45 18.43372 -66.09906 1583 ft 146 kts 89°
2026-04-26 02:45 18.43371 -66.08841 1388 ft 145 kts 90°
2026-04-26 02:45 18.43369 -66.07780 1210 ft 144 kts 89°
2026-04-26 02:46 18.43366 -66.06721 1032 ft 145 kts 91°
2026-04-26 02:46 18.43348 -66.05658 853 ft 145 kts 92°
2026-04-26 02:46 18.43354 -66.04596 651 ft 145 kts 89°
2026-04-26 02:46 18.43352 -66.03533 438 ft 145 kts 91°
2026-04-26 02:47 18.43353 -66.02470 265 ft 145 kts 92°
2026-04-26 02:47 18.43356 -66.01423 58 ft 144 kts 92°
2026-04-26 02:47 18.43353 -66.00464 17 ft 101 kts 90°
2026-04-26 02:47 18.43360 -66.00030 18 ft 32 kts 79°
2026-04-26 02:48 18.43419 -65.99906 17 ft 9 kts 41°
2026-04-26 02:48 18.43462 -65.99934 17 ft 10 kts 281°
2026-04-26 02:48 18.43465 -66.00016 17 ft 13 kts 269°
2026-04-26 02:48 18.43464 -66.00121 17 ft 16 kts 270°
2026-04-26 02:49 18.43464 -66.00248 17 ft 19 kts 270°
2026-04-26 02:49 18.43465 -66.00395 17 ft 19 kts 270°
2026-04-26 02:49 18.43465 -66.00534 17 ft 15 kts 270°
2026-04-26 02:49 18.43466 -66.00617 17 ft 12 kts 271°
2026-04-26 02:50 18.43517 -66.00649 17 ft 6 kts 356°
2026-04-26 02:50 18.43545 -66.00649 17 ft 2 kts 360°
2026-04-26 02:50 18.43552 -66.00649 17 ft 0 kts 360°